Shaw Air Force Base, SC

10:56 AM EDT on September 30, 2016 (GMT -0400)
Shaw Air Force Base

Weather History for KSSC - December, 2012

Change the Weather History Date:

Monday, December 17, 2012

  Actual Average Record
Temperature  
Mean Temperature 58 °F -  
Max Temperature 62 °F 54 °F 75 °F (2001)
Min Temperature 55 °F 33 °F 26 °F (2000)
Degree Days  
Heating Degree Days 6    
Growing Degree Days 8 (Base 50)    
Moisture  
Dew Point 58 °F    
Average Humidity 99    
Maximum Humidity 100    
Minimum Humidity 88    
Precipitation  
Precipitation 0.44 in - - ()
Sea Level Pressure  
Sea Level Pressure 29.83 in    
Wind  
Wind Speed 7 mph (WSW)    
Max Wind Speed 14 mph    
Max Gust Speed -    
Visibility 6 miles    
Events Fog , Rain    
Averages and records for this station are not official NWS values.
T = Trace of Precipitation, MM = Missing Value Source: NWS Daily Summary

Daily Weather History Graph

Daily Weather History Graph

Search for Another Location

Airport or City:

Trip Planner

Search our weather history database for the weather conditions in past years. The results will help you decide how hot, cold, wet, or windy it might be!

Date:

Astronomy

Dec. 17, 2012 Rise Set
Actual Time 7:21 AM EST 5:15 PM EST
Civil Twilight 6:53 AM EST 5:42 PM EST
Nautical Twilight 6:22 AM EST 6:14 PM EST
Astronomical Twilight 5:51 AM EST 6:44 PM EST
Moon 10:40 AM EST (12/17) 10:22 PM EST (12/17)
Length of Visible Light 10h 49m
Length of Day
9h 53m
Waxing Crescent, 24% of the Moon is Illuminated
Dec 17
Waxing Crescent
Dec 20
First Quarter
Dec 28
Full
Jan 4
Last Quarter
Jan 11
New

Hourly Weather History & Observations

Time (EST) Temp. Dew Point Humidity Pressure Visibility Wind Dir Wind Speed Gust Speed Precip Events Conditions
12:04 AM 59.0 °F 59.0 °F 100% 29.88 in 5.0 mi SSE 4.6 mph - N/A Rain Light Rain
12:08 AM 59.0 °F 59.0 °F 100% 29.87 in 5.0 mi SSE 4.6 mph - N/A Rain Light Rain
12:09 AM 59.0 °F 59.0 °F 100% 29.87 in 5.0 mi SSE 4.6 mph - N/A Rain Light Rain
12:15 AM 59.0 °F 59.0 °F 100% 29.87 in 6.0 mi South 4.6 mph - N/A Rain Light Rain
12:18 AM 59.0 °F 59.0 °F 100% 29.87 in 6.0 mi South 5.8 mph - N/A Rain Light Rain
12:20 AM 59.0 °F 59.0 °F 100% 29.86 in 6.0 mi SSE 5.8 mph - N/A Rain Light Rain
12:21 AM 59.0 °F 59.0 °F 100% 29.86 in 6.0 mi SSE 5.8 mph - N/A Rain Light Rain
12:30 AM 60.8 °F 60.8 °F 100% 29.86 in 6.0 mi South 5.8 mph - N/A Rain Light Rain
12:35 AM 60.8 °F 60.8 °F 100% 29.86 in 7.0 mi South 6.9 mph - N/A Rain Light Rain
12:55 AM 61.2 °F 61.2 °F 100% 29.86 in 10.0 mi South 9.2 mph - 0.01 in Rain Light Rain
1:01 AM 60.8 °F 60.8 °F 100% 29.86 in 10.0 mi South 8.1 mph - N/A Rain Light Rain
1:09 AM 60.8 °F 60.8 °F 100% 29.86 in 10.0 mi SSW 10.4 mph - N/A   Overcast
1:10 AM 60.8 °F 60.8 °F 100% 29.86 in 10.0 mi SSW 10.4 mph - N/A   Overcast
1:19 AM 60.8 °F 60.8 °F 100% 29.86 in 10.0 mi SSW 8.1 mph - N/A   Overcast
1:48 AM 62.6 °F 62.6 °F 100% 29.87 in 10.0 mi West 5.8 mph - N/A   Overcast
1:51 AM 62.6 °F 62.6 °F 100% 29.87 in 10.0 mi West 10.4 mph - N/A   Overcast
1:55 AM 61.7 °F 61.7 °F 100% 29.87 in 10.0 mi NW 13.8 mph - 0.00 in   Overcast
1:58 AM 60.8 °F 60.8 °F 100% 29.88 in 10.0 mi WNW 12.7 mph - N/A Rain Light Rain
2:09 AM 60.8 °F 60.8 °F 100% 29.88 in 3.0 mi NNW 11.5 mph - N/A Rain Heavy Rain
2:10 AM 60.8 °F 60.8 °F 100% 29.87 in 2.5 mi NNW 12.7 mph - N/A Rain Heavy Rain
2:11 AM 60.8 °F 60.8 °F 100% 29.88 in 2.5 mi NNW 12.7 mph - N/A Rain Heavy Rain
2:13 AM 59.0 °F 59.0 °F 100% 29.88 in 3.0 mi NW 11.5 mph - N/A Rain Light Rain
2:19 AM 59.0 °F 59.0 °F 100% 29.88 in 4.0 mi NW 11.5 mph - N/A Rain Light Rain
2:20 AM 59.0 °F 59.0 °F 100% 29.88 in 4.0 mi NW 10.4 mph - N/A Rain Light Rain
2:23 AM 59.0 °F 59.0 °F 100% 29.88 in 6.0 mi NNW 10.4 mph - N/A Rain Light Rain
2:24 AM 59.0 °F 59.0 °F 100% 29.88 in 6.0 mi NNW 10.4 mph - N/A Rain Light Rain
2:35 AM 59.0 °F 57.2 °F 94% 29.88 in 9.0 mi NNW 10.4 mph - N/A Rain Light Rain
2:40 AM 59.0 °F 57.2 °F 94% 29.88 in 10.0 mi NNW 8.1 mph - N/A Rain Light Rain
2:47 AM 57.2 °F 57.2 °F 100% 29.88 in 8.0 mi NW 6.9 mph - N/A Rain Light Rain
2:55 AM 57.9 °F 57.6 °F 99% 29.89 in 7.0 mi NNW 9.2 mph - 0.09 in Rain Light Rain
3:04 AM 57.2 °F 57.2 °F 100% 29.89 in 5.0 mi NNW 6.9 mph - N/A Rain Rain
3:19 AM 57.2 °F 57.2 °F 100% 29.88 in 5.0 mi NNW 6.9 mph - N/A Rain Rain
3:32 AM 57.2 °F 57.2 °F 100% 29.88 in 8.0 mi North 4.6 mph - N/A Rain Light Rain
3:39 AM 57.2 °F 57.2 °F 100% 29.88 in 10.0 mi NNE 3.5 mph - N/A Rain Light Rain
3:55 AM 57.0 °F 56.7 °F 99% 29.87 in 10.0 mi Calm Calm - 0.05 in   Overcast
4:40 AM 57.2 °F 57.2 °F 100% 29.84 in 10.0 mi SSE 3.5 mph - N/A   Overcast
4:55 AM 56.7 °F 56.3 °F 99% 29.81 in 10.0 mi ESE 10.4 mph - N/A   Mostly Cloudy
5:06 AM 57.2 °F 57.2 °F 100% 29.80 in 10.0 mi ESE 6.9 mph - N/A   Overcast
5:55 AM 56.5 °F 56.5 °F 100% 29.81 in 10.0 mi South 3.5 mph - N/A   Overcast
6:55 AM 56.3 °F 56.3 °F 100% 29.79 in 10.0 mi ESE 4.6 mph - N/A   Overcast
6:59 AM 57.2 °F 57.2 °F 100% 29.81 in 10.0 mi Variable 3.5 mph - N/A   Overcast
7:13 AM 55.4 °F 55.4 °F 100% 29.83 in 7.0 mi West 4.6 mph - N/A   Mostly Cloudy
7:41 AM 55.4 °F 55.4 °F 100% 29.84 in 5.0 mi WNW 4.6 mph - N/A   Overcast
7:47 AM 55.4 °F 55.4 °F 100% 29.85 in 2.0 mi West 4.6 mph - N/A   Overcast
7:52 AM 57.2 °F 57.2 °F 100% 29.85 in 1.0 mi West 4.6 mph - N/A   Overcast
7:55 AM 56.5 °F 56.5 °F 100% 29.86 in 0.5 mi West 4.6 mph - N/A Fog Fog
8:11 AM 57.2 °F 57.2 °F 100% 29.86 in 0.4 mi NW 5.8 mph - N/A Fog Fog
8:24 AM 57.2 °F 57.2 °F 100% 29.86 in 0.8 mi WNW 4.6 mph - N/A   Overcast
8:35 AM 57.2 °F 57.2 °F 100% 29.85 in 1.2 mi WNW 6.9 mph - N/A   Overcast
8:46 AM 57.2 °F 57.2 °F 100% 29.86 in 0.9 mi WNW 8.1 mph - N/A   Overcast
8:55 AM 57.0 °F 57.0 °F 100% 29.88 in 0.8 mi WNW 6.9 mph - N/A   Overcast
9:22 AM 57.2 °F 57.2 °F 100% 29.87 in 1.0 mi West 3.5 mph - N/A   Overcast
9:31 AM 57.2 °F 57.2 °F 100% 29.86 in 1.5 mi WNW 3.5 mph - N/A   Overcast
9:53 AM 57.2 °F 57.2 °F 100% 29.86 in 2.0 mi SW 2.3 mph - N/A   Overcast
9:55 AM 57.2 °F 57.2 °F 100% 29.88 in 2.0 mi SW 3.5 mph - N/A   Overcast
10:10 AM 57.2 °F 57.2 °F 100% 29.87 in 3.0 mi West 4.6 mph - N/A   Overcast
10:23 AM 57.2 °F 57.2 °F 100% 29.88 in 3.0 mi West 3.5 mph - N/A Rain Light Rain
10:35 AM 57.2 °F 57.2 °F 100% 29.87 in 3.0 mi West 3.5 mph - N/A Rain Light Rain
10:55 AM 57.9 °F 57.9 °F 100% 29.88 in 3.0 mi SSW 4.6 mph - 0.00 in   Overcast
10:58 AM 57.2 °F 57.2 °F 100% 29.86 in 10.0 mi SSW 3.5 mph - N/A   Overcast
11:08 AM 57.2 °F 57.2 °F 100% 29.85 in 5.0 mi West 3.5 mph - N/A   Overcast
11:20 AM 59.0 °F 59.0 °F 100% 29.84 in 4.0 mi NW 1.2 mph - N/A   Overcast
11:37 AM 59.0 °F 57.2 °F 94% 29.85 in 3.0 mi SW 3.5 mph - N/A Rain Light Rain
11:55 AM 58.6 °F 58.1 °F 98% 29.85 in 3.0 mi SW 4.6 mph - 0.00 in Rain Light Rain
12:55 PM 58.8 °F 57.7 °F 96% 29.83 in 3.0 mi SW 8.1 mph - 0.01 in Rain Light Rain
1:55 PM 58.6 °F 57.9 °F 97% 29.82 in 5.0 mi SW 4.6 mph - 0.01 in Rain Light Rain
2:13 PM 59.0 °F 59.0 °F 100% 29.82 in 4.0 mi SSW 6.9 mph - N/A Rain Light Rain
2:43 PM 59.0 °F 59.0 °F 100% 29.80 in 10.0 mi SSW 5.8 mph - N/A Rain Light Rain
2:49 PM 59.0 °F 59.0 °F 100% 29.80 in 4.0 mi SSW 4.6 mph - N/A Rain Light Rain
2:55 PM 59.2 °F 58.6 °F 98% 29.81 in 5.0 mi SSW 6.9 mph - 0.03 in Rain Light Rain
3:26 PM 59.0 °F 59.0 °F 100% 29.79 in 6.0 mi South 6.9 mph - N/A Rain Light Rain
3:48 PM 59.0 °F 59.0 °F 100% 29.79 in 3.0 mi SSW 5.8 mph - N/A Rain Rain
3:55 PM 58.8 °F 58.5 °F 99% 29.79 in 3.0 mi SW 5.8 mph - 0.09 in Rain Rain
4:55 PM 58.6 °F 58.3 °F 99% 29.76 in 3.0 mi SE 10.4 mph - 0.15 in Rain Light Rain
7:55 PM 58.3 °F 55.6 °F 91% 29.74 in 10.0 mi WSW 4.6 mph - N/A   Partly Cloudy
8:55 PM 57.7 °F 56.3 °F 95% 29.74 in 10.0 mi South 5.8 mph - N/A   Overcast
9:24 PM 57.2 °F 57.2 °F 100% 29.74 in 10.0 mi SSW 8.1 mph - N/A   Overcast
9:55 PM 58.8 °F 56.1 °F 91% 29.74 in 10.0 mi SSW 11.5 mph - N/A   Overcast
10:16 PM 59.0 °F 55.4 °F 88% 29.74 in 10.0 mi SSW 11.5 mph - N/A   Overcast
10:39 PM 59.0 °F 57.2 °F 94% 29.73 in 10.0 mi SSW 9.2 mph - N/A   Overcast
10:55 PM 58.6 °F 56.8 °F 94% 29.73 in 10.0 mi SSW 11.5 mph - N/A   Overcast
10:56 PM 59.0 °F 57.2 °F 94% 29.73 in 10.0 mi SSW 11.5 mph - N/A   Overcast
11:03 PM 59.0 °F 57.2 °F 94% 29.73 in 10.0 mi SSW 10.4 mph - N/A   Overcast
11:06 PM 59.0 °F 57.2 °F 94% 29.73 in 10.0 mi SSW 11.5 mph - N/A   Overcast
11:52 PM 59.0 °F 57.2 °F 94% 29.73 in 10.0 mi SW 11.5 mph - N/A   Overcast
11:53 PM 59.0 °F 57.2 °F 94% 29.73 in 10.0 mi SW 11.5 mph - N/A   Overcast
11:55 PM 59.2 °F 56.7 °F 91% 29.73 in 10.0 mi SW 11.5 mph - N/A   Overcast
11:56 PM 59.0 °F 57.2 °F 94% 29.73 in 10.0 mi WSW 11.5 mph - N/A   Overcast
11:57 PM 59.0 °F 57.2 °F 94% 29.73 in 10.0 mi WSW 10.4 mph - N/A   Overcast